981  
ASUS42 KCAE 220210  
RWRCAE  
REGIONAL WEATHER ROUNDUP  
NATIONAL WEATHER SERVICE COLUMBIA SC  
1000 PM EDT MON MAY 21 2018  
 
NOTE: "FAIR" INDICATES FEW OR NO CLOUDS BELOW 12,000 FEET WITH NO  
SIGNIFICANT WEATHER AND/OR S TO VISIBILITY
.  
 
NOT ALL STATIONS ARE QUALITY CONTROLLED BY THE NATIONAL  
WEATHER SERVICE. USE DATA WITH CAUTION...ESPECIALLY  
DEWPOINT OBSERVATIONS.  
 
SCZ001>056-GAZ040-063>065-077-220300-   
..UPSTATE SOUTH CAROLINA
 
 
 
CITY SKY/WX TMP DP RH WIND PRES REMARKS
 
ANDERSON MOCLDY 73 68 84 CALM 30.13R  
LIBERTY FAIR 67 67 100 CALM 30.13R  
SPARTANBURG FAIR 70 64 83 CALM 30.13R  
CLEMSON FAIR 72 65 78 CALM 30.14R  
GREENVILLE FAIR 78 63 59 CALM 30.15R  
GREENWOOD FAIR 74 69 85 S6 30.15R  
GREER FAIR 72 64 76 CALM 30.14R  
ROCK HILL MOCLDY 72 69 90 CALM 30.14R  
CHESTER FAIR 72 64 78 CALM 30.14S  
 
   
..CENTRAL SOUTH CAROLINA
 
 
 
CITY SKY/WX TMP DP RH WIND PRES REMARKS
 
COLUMBIA APT MOCLDY 79 70 74 S3 30.12R  
COLUMBIA OWENS FAIR 78 67 68 CALM 30.13R  
ORANGEBURG FAIR 76 68 76 S5 30.14R  
NEWBERRY FAIR 72 70 94 S5 30.16R  
AIKEN FAIR 73 66 78 SE5 30.17R  
BARNWELL FAIR 75 68 78 CALM 30.13R  
MANNING FAIR 72 66 83 CALM 30.14R  
CAMDEN FAIR 77 68 73 MISG 30.14R  
LANCASTER FAIR 72 72 100 CALM 30.14R  
WINNSBORO MOCLDY 73 68 83 S8 30.13R  
 
   
..EASTERN AND COASTAL SOUTH CAROLINA
 
 
 
CITY SKY/WX TMP DP RH WIND PRES REMARKS
 
MYRTLE BEACH FAIR 75 71 87 S8 30.16R  
N MYRTLE BCH FAIR 75 72 90 S9 30.14R  
CONWAY FAIR 72 72 100 CALM 30.15R  
MARION FAIR 73 70 88 S5 30.14R  
HARTSVILLE FAIR 73 68 83 S5 30.13R  
FLORENCE FAIR 76 68 76 S6 30.14R  
DARLINGTON N/A 77 70 79 S6 30.14R  
CHARLESTON APT MOCLDY 74 71 91 S5 30.14R  
MOUNT PLEASANT FAIR 73 72 94 CALM 30.15R  
WALTERBORO FAIR 72 70 94 CALM 30.14S  
BEAUFORT FAIR 76 72 87 SE3 30.14  
 
   
..EASTERN GEORGIA
 
 
 
CITY SKY/WX TMP DP RH WIND PRES REMARKS
 
AUGUSTA BUSH F FAIR 73 69 87 CALM 30.12R  
AUGUSTA DANIEL FAIR 77 67 71 SE5 30.13R  
THOMSON FAIR 76 68 77 SW6 30.18R  
CLAXTON FAIR 75 72 90 CALM 30.12S  
SYLVANIA FAIR 74 70 86 CALM 30.14R FOG  
STATESBORO FAIR 74 68 80 CALM 30.13R  
SAVANNAH MOCLDY 76 71 85 SE7 30.14R  
 
   
..SOUTHERN NORTH CAROLINA
 
 
 
CITY SKY/WX TMP DP RH WIND PRES REMARKS
 
CHARLOTTE MOCLDY 75 67 76 SE5 30.14R  
MONROE TSTM 68 68 100 E7 30.16R  
WADESBORO MOCLDY 74 65 72 W3 30.13R  
ROCKINGHAM FAIR 77 69 76 CALM 30.12R  
RUTHERFORDTON FAIR 73 67 81 CALM 30.15S  
ASHEVILLE FAIR 70 61 73 CALM 30.20R  
 

 
 
 
CLICK HERE TO GO TO PREVIOUS BULLETINS.

The Nexlab SC Page
The Nexlab GA Page Main Text Page